| time (UTC) | temp F | wind direction | speed MPH | gust MPH | rain 1hr in | rain 24hr in | rain mn in | humidity % | barometer mb |
| 20260509104225 | 39 | 116 | 0.0 | 0.0 | 0.00 | 0.00 | 0.00 | 63 | 1010.3 |
| 20260509103212 | 39 | 117 | 0.0 | 0.0 | 0.00 | 0.00 | 0.00 | 62 | 1010.1 |
| 20260509102225 | 40 | 117 | 0.0 | 0.0 | 0.00 | 0.00 | 0.00 | 62 | 1009.8 |
| 20260509101214 | 40 | 116 | 0.0 | 0.0 | 0.00 | 0.00 | 0.00 | 61 | 1009.7 |
| 20260509100220 | 40 | 117 | 0.0 | 0.0 | 0.00 | 0.00 | 0.00 | 61 | 1009.7 |
| 20260509095242 | 41 | 117 | 0.0 | 0.0 | 0.00 | 0.00 | 0.00 | 59 | 1009.5 |
| 20260509094235 | 41 | 116 | 0.0 | 0.0 | 0.00 | 0.00 | 0.00 | 59 | 1009.5 |
| 20260509093230 | 41 | 116 | 0.0 | 0.0 | 0.00 | 0.00 | 0.00 | 60 | 1009.4 |
| 20260509092214 | 41 | 117 | 0.0 | 0.0 | 0.00 | 0.00 | 0.00 | 59 | 1009.3 |
| 20260509091210 | 42 | 117 | 0.0 | 0.0 | 0.00 | 0.00 | 0.00 | 59 | 1009.2 |
| 20260509090519 | 41 | 123 | 0.0 | 0.0 | 0.00 | 0.00 | 0.00 | 80 | 1009.1 |
| 20260509085516 | 42 | 123 | 0.0 | 0.0 | 0.00 | 0.00 | 0.00 | 80 | 1009.1 |
| 20260509084539 | 43 | 242 | 0.0 | 0.0 | 0.00 | 0.00 | 0.00 | 79 | 1008.9 |
| 20260509082506 | 44 | 240 | 0.0 | 0.0 | 0.00 | 0.00 | 0.00 | 77 | 1008.8 |
| 20260509081508 | 44 | 240 | 0.0 | 0.0 | 0.00 | 0.00 | 0.00 | 78 | 1008.7 |
| 20260509080457 | 45 | 18 | 0.0 | 0.0 | 0.00 | 0.00 | 0.00 | 73 | 1008.6 |
| 20260509075426 | 46 | 18 | 0.0 | 0.0 | 0.00 | 0.00 | 0.00 | 72 | 1008.5 |
| 20260509074424 | 46 | 18 | 0.0 | 0.0 | 0.00 | 0.00 | 0.00 | 70 | 1008.4 |
| 20260509073420 | 47 | 18 | 0.0 | 0.0 | 0.00 | 0.00 | 0.00 | 71 | 1008.4 |
| 20260509072425 | 47 | 158 | 0.0 | 0.0 | 0.00 | 0.00 | 0.00 | 69 | 1008.5 |
| 20260509071415 | 48 | 260 | 0.0 | 0.0 | 0.00 | 0.00 | 0.00 | 65 | 1008.5 |
| 20260509070434 | 48 | 293 | 0.0 | 0.0 | 0.00 | 0.00 | 0.00 | 66 | 1008.5 |
| 20260509065435 | 49 | 325 | 0.0 | 0.0 | 0.00 | 0.00 | 0.00 | 65 | 1008.4 |
| 20260509064407 | 50 | 325 | 0.0 | 0.0 | 0.00 | 0.00 | 0.00 | 67 | 1008.5 |
| 20260509063401 | 51 | 325 | 0.0 | 0.0 | 0.00 | 0.00 | 0.00 | 69 | 1008.5 |
| 20260509061306 | 53 | 325 | 0.0 | 0.0 | 0.00 | 0.00 | 0.00 | 59 | 1008.4 |
| 20260509054102 | 54 | 267 | 0.0 | 0.0 | 0.00 | 0.00 | 0.00 | 53 | 1008.3 |
| 20260509053047 | 54 | 354 | 0.0 | 0.0 | 0.00 | 0.00 | 0.00 | 53 | 1008.2 |
| 20260509052052 | 53 | 20 | 0.0 | 0.0 | 0.00 | 0.00 | 0.00 | 61 | 1008.1 |
| 20260509051019 | 54 | 20 | 0.0 | 0.0 | 0.00 | 0.00 | 0.00 | 63 | 1008.1 |
| 20260509050014 | 54 | 136 | 0.0 | 0.0 | 0.00 | 0.00 | 0.00 | 56 | 1008.2 |
| 20260509045002 | 54 | 137 | 0.0 | 0.0 | 0.00 | 0.00 | 0.00 | 55 | 1008.2 |
| 20260509043939 | 55 | 136 | 0.0 | 0.0 | 0.00 | 0.00 | 0.00 | 55 | 1008.2 |
| 20260509040800 | 55 | 136 | 0.0 | 0.0 | 0.00 | 0.00 | 0.00 | 52 | 1008.2 |
| 20260509035748 | 56 | 137 | 0.0 | 0.0 | 0.00 | 0.00 | 0.00 | 51 | 1008.1 |
| 20260509034716 | 58 | 140 | 0.0 | 0.0 | 0.00 | 0.00 | 0.00 | 52 | 1008.0 |
| 20260509033733 | 58 | 124 | 0.0 | 0.0 | 0.00 | 0.00 | 0.00 | 47 | 1007.9 |
| 20260509032724 | 59 | 148 | 0.0 | 0.0 | 0.00 | 0.00 | 0.00 | 43 | 1007.6 |
| 20260509030652 | 60 | 243 | 0.0 | 0.0 | 0.00 | 0.00 | 0.00 | 41 | 1007.4 |
| 20260509024510 | 61 | 110 | 0.0 | 0.0 | 0.00 | 0.00 | 0.00 | 38 | 1007.0 |
| 20260509023449 | 63 | 229 | 0.0 | 0.0 | 0.00 | 0.00 | 0.00 | 36 | 1006.9 |
| 20260509022437 | 64 | 250 | 0.0 | 5.0 | 0.00 | 0.00 | 0.00 | 34 | 1006.7 |
| 20260509020313 | 66 | 256 | 0.0 | 0.0 | 0.00 | 0.00 | 0.00 | 34 | 1006.3 |
| 20260509015300 | 67 | 238 | 0.0 | 0.0 | 0.00 | 0.00 | 0.00 | 32 | 1006.3 |
| 20260509013147 | 69 | 240 | 0.0 | 0.0 | 0.00 | 0.00 | 0.00 | 27 | 1006.4 |
| 20260509012155 | 68 | 187 | 0.0 | 0.0 | 0.00 | 0.00 | 0.00 | 20 | 1006.5 |
| 20260509011154 | 68 | 186 | 0.0 | 0.0 | 0.00 | 0.00 | 0.00 | 16 | 1006.5 |
| 20260509005047 | 70 | 213 | 2.0 | 6.0 | 0.00 | 0.00 | 0.00 | 13 | 1006.6 |
| 20260509004034 | 71 | 218 | 3.0 | 7.0 | 0.00 | 0.00 | 0.00 | 13 | 1006.5 |
| 20260509003035 | 71 | 175 | 3.0 | 10.0 | 0.00 | 0.00 | 0.00 | 12 | 1006.4 |
| 20260509002055 | 72 | 225 | 2.0 | 10.0 | 0.00 | 0.00 | 0.00 | 11 | 1006.3 |
| 20260509001032 | 73 | 206 | 0.0 | 4.0 | 0.00 | 0.00 | 0.00 | 11 | 1006.2 |
| 20260509000042 | 73 | 188 | 1.0 | 3.0 | 0.00 | 0.00 | 0.00 | 11 | 1006.3 |
| 20260508235037 | 73 | 221 | 0.0 | 0.0 | 0.00 | 0.00 | 0.00 | 13 | 1006.2 |
| 20260508234032 | 74 | 215 | 2.0 | 9.0 | 0.00 | 0.00 | 0.00 | 11 | 1006.3 |
| 20260508232957 | 74 | 212 | 3.0 | 9.0 | 0.00 | 0.00 | 0.00 | 12 | 1006.5 |
| 20260508225747 | 73 | 219 | 2.0 | 9.0 | 0.00 | 0.00 | 0.00 | 13 | 1006.5 |
| 20260508224745 | 73 | 262 | 2.0 | 11.0 | 0.00 | 0.00 | 0.00 | 14 | 1006.6 |
| 20260508223810 | 73 | 232 | 3.0 | 11.0 | 0.00 | 0.00 | 0.00 | 15 | 1006.8 |
| 20260508222746 | 72 | 183 | 1.0 | 6.0 | 0.00 | 0.00 | 0.00 | 13 | 1007.0 |
| 20260508221742 | 72 | 159 | 2.0 | 14.0 | 0.00 | 0.00 | 0.00 | 12 | 1007.1 |
| 20260508220716 | 73 | 191 | 3.0 | 14.0 | 0.00 | 0.00 | 0.00 | 13 | 1006.9 |
| 20260508215738 | 73 | 157 | 2.0 | 12.0 | 0.00 | 0.00 | 0.00 | 11 | 1007.2 |
| 20260508214728 | 73 | 220 | 4.0 | 11.0 | 0.00 | 0.00 | 0.00 | 13 | 1007.3 |
| 20260508213743 | 72 | 225 | 3.0 | 13.0 | 0.00 | 0.00 | 0.00 | 13 | 1007.4 |
| 20260508212805 | 73 | 153 | 4.0 | 13.0 | 0.00 | 0.00 | 0.00 | 13 | 1007.3 |
| 20260508211815 | 73 | 172 | 3.0 | 11.0 | 0.00 | 0.00 | 0.00 | 12 | 1007.6 |
| 20260508210825 | 73 | 219 | 4.0 | 11.0 | 0.00 | 0.00 | 0.00 | 13 | 1007.5 |
| 20260508205831 | 73 | 206 | 2.0 | 6.0 | 0.00 | 0.00 | 0.00 | 14 | 1007.8 |
| 20260508204832 | 73 | 137 | 4.0 | 9.0 | 0.00 | 0.00 | 0.00 | 12 | 1007.9 |
| 20260508203837 | 72 | 225 | 4.0 | 12.0 | 0.00 | 0.00 | 0.00 | 13 | 1008.1 |
| 20260508202814 | 72 | 190 | 3.0 | 12.0 | 0.00 | 0.00 | 0.00 | 12 | 1008.1 |
| 20260508201744 | 72 | 122 | 6.0 | 17.0 | 0.00 | 0.00 | 0.00 | 11 | 1008.3 |
| 20260508200752 | 72 | 207 | 5.0 | 17.0 | 0.00 | 0.00 | 0.00 | 11 | 1008.4 |
| 20260508195733 | 72 | 217 | 4.0 | 12.0 | 0.00 | 0.00 | 0.00 | 13 | 1008.6 |
| 20260508194706 | 71 | 186 | 6.0 | 14.0 | 0.00 | 0.00 | 0.00 | 13 | 1008.5 |
| 20260508193712 | 71 | 215 | 4.0 | 14.0 | 0.00 | 0.00 | 0.00 | 16 | 1008.7 |
| 20260508191550 | 71 | 205 | 4.0 | 12.0 | 0.00 | 0.00 | 0.00 | 16 | 1009.0 |
| 20260508190542 | 70 | 141 | 4.0 | 12.0 | 0.00 | 0.00 | 0.00 | 14 | 1009.3 |
| 20260508185516 | 70 | 225 | 3.0 | 10.0 | 0.00 | 0.00 | 0.00 | 15 | 1009.4 |
| 20260508184442 | 69 | 168 | 0.0 | 3.0 | 0.00 | 0.00 | 0.00 | 17 | 1009.8 |
| 20260508183451 | 69 | 176 | 0.0 | 4.0 | 0.00 | 0.00 | 0.00 | 21 | 1009.9 |
| 20260508182449 | 68 | 205 | 1.0 | 4.0 | 0.00 | 0.00 | 0.00 | 17 | 1010.3 |
| 20260508181444 | 68 | 173 | 0.0 | 5.0 | 0.00 | 0.00 | 0.00 | 22 | 1010.5 |
| 20260508175310 | 67 | 37 | 0.0 | 3.0 | 0.00 | 0.00 | 0.00 | 21 | 1011.2 |
| 20260508174309 | 68 | 34 | 0.0 | 2.0 | 0.00 | 0.00 | 0.00 | 22 | 1011.4 |
| 20260508173325 | 66 | 100 | 0.0 | 2.0 | 0.00 | 0.00 | 0.00 | 23 | 1011.5 |
| 20260508172301 | 66 | 290 | 0.0 | 2.0 | 0.00 | 0.00 | 0.00 | 25 | 1011.8 |
| 20260508170121 | 64 | 315 | 0.0 | 3.0 | 0.00 | 0.00 | 0.00 | 26 | 1012.2 |
| 20260508165059 | 63 | 209 | 0.0 | 3.0 | 0.00 | 0.00 | 0.00 | 26 | 1012.3 |
| 20260508162945 | 60 | 205 | 0.0 | 3.0 | 0.00 | 0.00 | 0.00 | 31 | 1012.7 |
| 20260508161948 | 59 | 264 | 0.0 | 1.0 | 0.00 | 0.00 | 0.00 | 32 | 1013.0 |
| 20260508160955 | 58 | 180 | 0.0 | 2.0 | 0.00 | 0.00 | 0.00 | 32 | 1013.1 |
| 20260508160010 | 57 | 181 | 0.0 | 2.0 | 0.00 | 0.00 | 0.00 | 34 | 1013.4 |
| 20260508155024 | 56 | 205 | 0.0 | 3.0 | 0.00 | 0.00 | 0.00 | 36 | 1013.6 |
| 20260508153957 | 55 | 188 | 0.0 | 3.0 | 0.00 | 0.00 | 0.00 | 36 | 1013.9 |
| 20260508152958 | 54 | 192 | 0.0 | 3.0 | 0.00 | 0.00 | 0.00 | 39 | 1014.0 |
| 20260508151937 | 54 | 155 | 0.0 | 3.0 | 0.00 | 0.00 | 0.00 | 37 | 1014.3 |
| 20260508150919 | 53 | 231 | 1.0 | 2.0 | 0.00 | 0.00 | 0.00 | 39 | 1014.5 |
| 20260508145905 | 53 | 208 | 0.0 | 2.0 | 0.00 | 0.00 | 0.00 | 45 | 1014.7 |
| 20260508143754 | 50 | 179 | 0.0 | 0.0 | 0.00 | 0.00 | 0.00 | 45 | 1014.9 |
| 20260508142802 | 49 | 181 | 0.0 | 0.0 | 0.00 | 0.00 | 0.00 | 47 | 1015.0 |
| 20260508141742 | 47 | 193 | 0.0 | 1.0 | 0.00 | 0.00 | 0.00 | 50 | 1015.2 |
| 20260508140727 | 46 | 158 | 0.0 | 1.0 | 0.00 | 0.00 | 0.00 | 54 | 1015.3 |
| 20260508135748 | 45 | 124 | 0.0 | 0.0 | 0.00 | 0.00 | 0.00 | 55 | 1015.5 |
| 20260508134807 | 41 | 93 | 0.0 | 0.0 | 0.00 | 0.00 | 0.00 | 62 | 1015.5 |
| 20260508133803 | 39 | 91 | 0.0 | 0.0 | 0.00 | 0.00 | 0.00 | 64 | 1015.5 |
| 20260508132824 | 38 | 91 | 0.0 | 0.0 | 0.00 | 0.00 | 0.00 | 67 | 1015.5 |
| 20260508130645 | 36 | 91 | 0.0 | 0.0 | 0.00 | 0.00 | 0.00 | 71 | 1015.1 |
| 20260508125623 | 35 | 91 | 0.0 | 0.0 | 0.00 | 0.00 | 0.00 | 72 | 1015.0 |
| 20260508123456 | 33 | 91 | 0.0 | 0.0 | 0.00 | 0.00 | 0.00 | 72 | 1014.6 |
| 20260508122427 | 33 | 91 | 0.0 | 0.0 | 0.00 | 0.00 | 0.00 | 72 | 1014.6 |
| 20260508121416 | 33 | 91 | 0.0 | 0.0 | 0.00 | 0.00 | 0.00 | 71 | 1014.4 |
| 20260508115231 | 33 | 91 | 0.0 | 0.0 | 0.00 | 0.00 | 0.00 | 70 | 1013.9 |
| 20260508114222 | 34 | 91 | 0.0 | 0.0 | 0.00 | 0.00 | 0.00 | 70 | 1013.9 |
| 20260508112135 | 34 | 93 | 0.0 | 0.0 | 0.00 | 0.00 | 0.00 | 70 | 1013.7 |
| 20260508111126 | 34 | 92 | 0.0 | 0.0 | 0.00 | 0.00 | 0.00 | 69 | 1013.6 |
| 20260508110053 | 34 | 92 | 0.0 | 0.0 | 0.00 | 0.00 | 0.00 | 69 | 1013.4 |